Trenton, NJ

2:38 AM EDT on June 28, 2017 (GMT -0400)
Trenton Mercer

Weather History for KTTN - January, 2012

Change the Weather History Date:

Thursday, January 19, 2012

  Actual Average Record
Temperature  
Mean Temperature 29 °F 31 °F  
Max Temperature 38 °F 39 °F 65 °F (1951)
Min Temperature 19 °F 23 °F -8 °F (1875)
Degree Days  
Heating Degree Days 36 34  
Month to date heating degree days 531 645  
Since 1 July heating degree days 1939 2540  
Cooling Degree Days 0 0  
Month to date cooling degree days 0 0  
Year to date cooling degree days 0 0  
Moisture  
Dew Point 14 °F    
Average Humidity 50    
Maximum Humidity 62    
Minimum Humidity 37    
Precipitation  
Precipitation 0.00 in 0.09 in 2.00 in (1996)
Month to date precipitation 2.03 1.98  
Year to date precipitation 2.03 1.98  
Sea Level Pressure  
Sea Level Pressure 30.10 in    
Wind  
Wind Speed 6 mph (SE)    
Max Wind Speed 13 mph    
Max Gust Speed 16 mph    
Visibility 10 miles    
Events      
T = Trace of Precipitation, MM = Missing Value Source: NWS Daily Summary

Daily Weather History Graph

Daily Weather History Graph

Search for Another Location

Airport or City:

Trip Planner

Search our weather history database for the weather conditions in past years. The results will help you decide how hot, cold, wet, or windy it might be!

Date:

Astronomy

Jan. 19, 2012 Rise Set
Actual Time 7:18 AM EST 5:01 PM EST
Civil Twilight 6:48 AM EST 5:31 PM EST
Nautical Twilight 6:15 AM EST 6:04 PM EST
Astronomical Twilight 5:42 AM EST 6:37 PM EST
Moon 3:52 AM EST (1/19) 1:31 PM EST (1/19)
Length of Visible Light 10h 42m
Length of Day
9h 43m
Waning Crescent, 16% of the Moon is Illuminated
Jan 19
Waning Crescent
Jan 23
New
Jan 30
First Quarter
Feb 7
Full
Feb 14
Last Quarter

Hourly Weather History & Observations

Time (EST) Temp. Windchill Dew Point Humidity Pressure Visibility Wind Dir Wind Speed Gust Speed Precip Events Conditions
12:53 AM 23.0 °F 18.4 °F 10.9 °F 60% 30.18 in 10.0 mi North 3.5 mph - N/A   Clear
1:53 AM 21.0 °F 14.6 °F 10.0 °F 63% 30.18 in 10.0 mi NNE 4.6 mph - N/A   Clear
2:53 AM 23.0 °F 17.0 °F 9.0 °F 55% 30.19 in 10.0 mi NNE 4.6 mph - N/A   Clear
3:53 AM 21.9 °F 14.5 °F 9.0 °F 58% 30.17 in 10.0 mi NE 5.8 mph - N/A   Clear
4:53 AM 21.0 °F 13.4 °F 9.0 °F 60% 30.17 in 10.0 mi NE 5.8 mph - N/A   Clear
5:53 AM 19.0 °F 11.1 °F 8.1 °F 62% 30.19 in 10.0 mi East 5.8 mph - N/A   Clear
6:53 AM 19.0 °F 12.3 °F 9.0 °F 65% 30.20 in 10.0 mi East 4.6 mph - N/A   Clear
7:53 AM 21.9 °F 15.7 °F 10.0 °F 60% 30.22 in 10.0 mi NE 4.6 mph - N/A   Clear
8:53 AM 25.0 °F 17.1 °F 10.9 °F 55% 30.22 in 10.0 mi East 6.9 mph - N/A   Clear
9:53 AM 28.0 °F 21.7 °F 12.9 °F 53% 30.21 in 10.0 mi East 5.8 mph - N/A   Clear
10:53 AM 30.2 °F 24.3 °F 15.8 °F 55% 30.21 in 10.0 mi SE 5.8 mph - N/A   Clear
11:53 AM 33.1 °F 26.1 °F 17.1 °F 52% 30.14 in 10.0 mi SSE 8.1 mph - N/A   Clear
12:53 PM 35.6 °F 28.6 °F 19.4 °F 52% 30.12 in 10.0 mi South 9.2 mph - N/A   Clear
1:53 PM 36.0 °F 29.6 °F 19.0 °F 50% 30.08 in 10.0 mi SSW 8.1 mph - N/A   Clear
2:53 PM 37.0 °F 29.3 °F 18.0 °F 46% 30.05 in 10.0 mi SW 11.5 mph - N/A   Clear
3:53 PM 37.0 °F 31.0 °F 14.0 °F 39% 30.02 in 10.0 mi SSW 8.1 mph - N/A   Clear
4:53 PM 36.0 °F 30.3 °F 14.0 °F 41% 30.02 in 10.0 mi SSW 6.9 mph - N/A   Overcast
5:53 PM 36.0 °F 30.3 °F 15.1 °F 43% 30.00 in 10.0 mi SSW 6.9 mph - N/A   Overcast
6:53 PM 36.0 °F 29.0 °F 14.0 °F 41% 29.97 in 10.0 mi SSW 9.2 mph - N/A   Overcast
7:53 PM 35.6 °F 29.9 °F 15.8 °F 44% 29.96 in 10.0 mi SSW 6.9 mph - N/A   Clear
8:53 PM 36.0 °F - 17.1 °F 46% 29.96 in 10.0 mi Calm Calm - N/A   Overcast
9:53 PM 34.0 °F - 19.0 °F 54% 29.95 in 10.0 mi Calm Calm - N/A   Overcast
10:53 PM 34.0 °F - 19.9 °F 56% 29.94 in 10.0 mi Calm Calm - N/A   Overcast
11:53 PM 34.0 °F - 21.0 °F 59% 29.94 in 10.0 mi Calm Calm - N/A   Overcast